Weather in Saylyg

Russia / Tyva Republic     51°07′19″N   93°41′00″E
temp.,
°C
wind,
m/s
gust,
m/s
humid.,
%
clouds,
%
prec.,
mm/h
press.,
hPa
HPBL,
m
29 november, mon
mon2901:00−13ssw328780 0.0 104017
04:00−14ssw328619 0.0 104215
07:00−14s32857 0.0 104220
10:00−10s23775 0.0 104162
13:00−6s2368100 0.0 1037220
16:00−11s348383 0.0 104075
19:00−11s4482100 0.0 103958
22:00−11s4479100 0.0 103970
30 november, tue
tue3001:00−12s448170 0.0 103957
04:00−13s448136 0.0 103843
07:00−13s448170 0.0 103737
10:00−10s3375100 0.0 103558
13:00−6ssw1267100 0.0 1031136
16:00−10s228438 0.0 103424
19:00−12s3278100 0.0 103529
22:00−11s3278100 0.0 103523
1 december, wed
wed101:00−12s327827 0.0 103627
04:00−12s327784 0.0 103523
07:00−12s327679 0.0 103528
10:00−9s33711 0.0 103549
13:00−4sw11601 0.0 1031145
16:00−9s44771 0.0 103545
19:00−12s43716 0.0 103729
22:00−11s44701 0.0 103740
2 december, thu
thu201:00−12s44746 0.0 103748
04:00−12s44716 0.0 103548
07:00−12s44722 0.0 103643
10:00−9s34686 0.0 103460
13:00−5ssw22571 0.0 1030138
16:00−10s337584 0.0 103341
19:00−11s436636 0.0 103432
22:00−11s436776 0.0 103435
3 december, fri
fri301:00−11s4468100 0.0 103439
04:00−12s446648 0.0 103443
07:00−12s54685 0.0 103448
10:00−10s456425 0.0 103285
13:00−8s45581 0.0 1028159
16:00−11s56666 0.0 102997
19:00−13s66658 0.0 103082
22:00−14s67689 0.0 103094